Location: Blanot
(47.1713°N, 4.2340°E)
Time: 10:22:16
(UTC+00:00)

SL-24 DEB - Pass Details

Date: 14 July 2020
Orbit: 667 x 698 km, 92.0° (Epoch: 05 August)

Event Time Altitude Azimuth Distance (km) Brightness Sun altitude
Rises 00:54:39 0° 3° (N) 3,065 9.1 -19.6°
Reaches altitude 10° 00:56:54 10° 3° (N) 2,149 8.0 -19.5°
Maximum altitude 01:01:39 82° 277° (W) 706 4.2 -19.3°
Enters shadow 01:03:20 41° 194° (SSW) 1,008 4.6 -19.2°
